Date String (YYYY-MM-DD hh:mm:ss) UTC,Instrument flags,absolute air pressure of the measurement (hPa),sample flow rate (lpm),inlet stack bypass flow (lpm),air temperature of the measurement (°C),ambient temperature measured by the external sensor (°C),aerosol sample conditioner tube jacket temperature (°C),OPC LED temperature (°C),internal box temperature (°C),relative humidity of the measurement (%),span deviation,mass concentration of particles derived from Lorenz-Mie calculation of OPC scattering (μg/m³),mass concentration of particles derived from Lorenz-Mie calculation of OPC scattering (μg/m³),mass concentration of particles derived from Lorenz-Mie calculation of OPC scattering (μg/m³)
DateTimeUTC,F1_M11,P_M11,Q1_M11,Q2_M11,T1_M11,T2_M11,T3_M11,T4_M11,T5_M11,U1_M11,ZSPAN_M11,X0_M11,X2_M11,X1_M11
2023-08-14 13:00:00,SystemResetWarning,0841.6,5.00,000.00,030.0,028.5,000.0,038.6,031.5,20.2,0001.5,0007.66,0003.96,0003.53
2023-08-14 13:01:00,SystemResetWarning,0841.6,5.00,000.00,030.0,028.5,000.0,038.6,031.5,20.2,0001.6,0007.67,0003.95,0003.52
2023-08-14 13:02:00,SystemResetWarning,0841.6,5.00,000.00,030.0,028.5,000.0,038.6,031.5,20.3,0001.8,0007.72,0003.97,0003.52
2023-08-14 13:03:00,SystemResetWarning,0841.6,5.00,000.00,030.0,028.5,000.0,038.6,031.5,20.1,0001.5,0007.68,0003.96,0003.52
2023-08-14 13:04:00,SystemResetWarning,0841.6,5.00,000.00,030.0,028.6,000.0,038.6,031.5,20.4,0003.1,0007.68,0003.97,0003.52
2023-08-14 13:05:00,SystemResetWarning,0841.6,5.00,000.00,030.0,028.6,000.0,038.6,031.5,20.2,0003.5,0007.55,0003.94,0003.52
2023-08-14 13:06:00,SystemResetWarning,0841.6,5.00,000.00,030.0,028.6,000.0,038.6,031.5,20.4,0003.5,0007.42,0003.92,0003.52
2023-08-14 13:07:00,SystemResetWarning,0841.6,5.00,000.00,030.0,028.6,000.0,038.6,031.5,20.4,0003.6,0008.19,0003.89,0003.53
2023-08-14 13:08:00,SystemResetWarning,0841.6,5.00,000.00,030.0,028.6,000.0,038.6,031.5,20.4,0003.8,0008.22,0003.89,0003.53
2023-08-14 13:09:00,SystemResetWarning,0841.6,5.00,000.00,030.0,028.6,000.0,038.6,031.6,20.3,0003.7,0008.09,0003.90,0003.54
2023-08-14 13:10:00,SystemResetWarning,0841.6,5.00,000.00,030.0,028.6,000.0,038.7,031.6,20.7,0003.8,0008.29,0003.91,0003.56
2023-08-14 13:11:00,SystemResetWarning,0841.6,5.00,000.00,030.0,028.6,000.0,038.7,031.6,21.2,0003.9,0008.46,0003.94,0003.57
2023-08-14 13:12:00,SystemResetWarning,0841.6,5.00,000.00,030.0,028.6,000.0,038.7,031.6,21.3,0001.3,0008.95,0003.99,0003.58
2023-08-14 13:13:00,SystemResetWarning,0841.6,5.00,000.00,030.0,028.6,000.0,038.7,031.6,20.6,0000.0,0009.29,0004.03,0003.58
2023-08-14 13:14:00,SystemResetWarning,0841.6,5.01,000.00,030.0,028.6,000.0,038.7,031.6,20.3,0000.0,0010.18,0004.02,0003.58
2023-08-14 13:15:00,SystemResetWarning,0841.6,5.00,000.00,030.1,028.7,000.0,038.7,031.6,20.4,0000.0,0010.33,0004.00,0003.57
2023-08-14 13:16:00,SystemResetWarning,0841.6,5.00,000.00,030.1,028.7,000.0,038.7,031.6,20.1,0000.0,0010.59,0004.00,0003.56
2023-08-14 13:17:00,SystemResetWarning,0841.6,4.99,000.00,030.1,028.7,000.0,038.7,031.6,20.3,0000.5,0010.60,0004.00,0003.56
2023-08-14 13:18:00,SystemResetWarning,0841.6,4.99,000.00,030.1,028.7,000.0,038.7,031.6,20.8,0000.0,0009.56,0003.98,0003.54
2023-08-14 13:19:00,SystemResetWarning,0841.6,4.99,000.00,030.1,028.7,000.0,038.7,031.6,20.7,0000.0,0009.31,0003.97,0003.54
2023-08-14 13:20:00,SystemResetWarning,0841.6,5.00,000.00,030.1,028.7,000.0,038.7,031.6,20.6,0000.0,0009.35,0003.98,0003.53
2023-08-14 13:21:00,SystemResetWarning,0841.6,5.00,000.00,030.1,028.7,000.0,038.7,031.6,20.7,0000.0,0009.30,0003.97,0003.51
2023-08-14 13:22:00,SystemResetWarning,0841.6,5.00,000.00,030.1,028.7,000.0,038.7,031.7,20.8,0000.0,0009.46,0003.94,0003.49
2023-08-14 13:23:00,SystemResetWarning,0841.6,5.00,000.00,030.1,028.8,000.0,038.8,031.7,20.6,0000.0,0009.27,0003.92,0003.48
2023-08-14 13:24:00,SystemResetWarning,0841.6,5.01,000.00,030.1,028.8,000.0,038.8,031.7,20.2,0000.0,0008.84,0003.87,0003.45
2023-08-14 13:25:00,SystemResetWarning,0841.6,5.00,000.00,030.1,028.8,000.0,038.8,031.7,20.8,0000.0,0008.53,0003.85,0003.44
2023-08-14 13:26:00,SystemResetWarning,0841.6,5.00,000.00,030.1,028.8,000.0,038.8,031.7,20.4,0000.0,0008.59,0003.85,0003.43
2023-08-14 13:27:00,SystemResetWarning,0841.6,5.00,000.00,030.1,028.8,000.0,038.8,031.7,19.9,0000.0,0008.38,0003.84,0003.42
2023-08-14 13:28:00,SystemResetWarning,0841.6,5.00,000.00,030.2,028.8,000.0,038.8,031.7,19.8,0000.0,0008.46,0003.85,0003.41
2023-08-14 13:29:00,SystemResetWarning,0841.6,5.00,000.00,030.2,028.8,000.0,038.8,031.7,20.4,0000.0,0008.49,0003.86,0003.41
2023-08-14 13:30:00,SystemResetWarning,0841.6,5.00,000.00,030.2,028.8,000.0,038.8,031.7,20.4,0000.0,0008.59,0003.88,0003.42
2023-08-14 13:31:00,SystemResetWarning,0841.6,5.01,000.00,030.2,028.9,000.0,038.8,031.7,20.0,0000.0,0008.66,0003.88,0003.42
2023-08-14 13:32:00,SystemResetWarning,0841.5,5.00,000.00,030.2,028.9,000.0,038.8,031.8,20.1,0000.0,0008.70,0003.89,0003.43
2023-08-14 13:33:00,SystemResetWarning,0841.6,5.00,000.00,030.2,028.9,000.0,038.8,031.7,20.3,0000.0,0008.39,0003.89,0003.44
2023-08-14 13:34:00,SystemResetWarning,0841.6,5.00,000.00,030.2,028.9,000.0,038.8,031.8,20.1,0000.0,0008.31,0003.89,0003.45
2023-08-14 13:35:00,SystemResetWarning,0841.5,5.00,000.00,030.2,028.9,000.0,038.8,031.8,19.9,0000.0,0008.54,0003.91,0003.47
2023-08-14 13:36:00,SystemResetWarning,0841.6,4.99,000.00,030.2,028.4,000.0,038.8,031.8,19.7,0000.0,0008.00,0003.92,0003.49
2023-08-14 13:37:00,SystemResetWarning,0841.6,5.01,000.00,030.2,026.4,000.0,038.6,031.4,20.0,0000.0,0007.81,0003.94,0003.51
2023-08-14 13:38:00,SystemResetWarning,0841.6,5.01,000.00,030.1,025.5,000.0,038.5,031.2,20.1,0000.0,0008.28,0003.96,0003.52
2023-08-14 13:39:00,SystemResetWarning,0841.6,5.01,000.00,030.0,025.7,000.0,038.5,031.1,20.1,0000.3,0008.34,0003.96,0003.52
2023-08-14 13:40:00,SystemResetWarning,0841.6,5.01,000.00,029.9,026.0,000.0,038.5,031.0,20.2,0003.2,0008.66,0003.96,0003.52
2023-08-14 13:41:00,SystemResetWarning,0841.6,5.00,000.00,029.8,026.4,000.0,038.5,031.1,20.0,0003.2,0008.87,0003.95,0003.52
2023-08-14 13:42:00,SystemResetWarning,0841.6,4.99,000.00,029.8,026.8,000.0,038.5,031.1,19.8,0003.1,0008.70,0003.91,0003.51
2023-08-14 13:43:00,SystemResetWarning,0841.6,5.00,000.00,029.8,027.1,000.0,038.5,031.2,19.5,0002.9,0008.55,0003.86,0003.49
2023-08-14 13:44:00,SystemResetWarning,0841.7,5.01,000.00,029.8,027.4,000.0,038.5,031.2,19.3,0002.9,0009.07,0003.85,0003.48
2023-08-14 13:45:00,SystemResetWarning,0841.6,5.00,000.00,029.8,027.6,000.0,038.5,031.2,19.2,0002.4,0009.02,0003.83,0003.47
2023-08-14 13:46:00,SystemResetWarning,0841.7,5.00,000.00,029.8,027.8,000.0,038.5,031.2,19.1,0001.9,0008.75,0003.80,0003.46
2023-08-14 13:47:00,SystemResetWarning,0841.7,5.00,000.00,029.8,027.9,000.0,038.5,031.3,19.2,0001.4,0008.81,0003.79,0003.46
2023-08-14 13:48:00,SystemResetWarning,0841.7,5.00,000.00,029.8,028.1,000.0,038.4,031.3,19.2,0001.2,0008.81,0003.79,0003.44
2023-08-14 13:49:00,SystemResetWarning,0841.8,5.00,000.00,029.8,028.2,000.0,038.4,031.3,19.3,0001.0,0008.15,0003.76,0003.43
2023-08-14 13:50:00,SystemResetWarning,0841.7,4.99,000.00,029.8,028.3,000.0,038.4,031.3,19.5,0001.0,0007.89,0003.73,0003.43
2023-08-14 13:51:00,SystemResetWarning,0841.7,4.99,000.00,029.8,028.3,000.0,038.4,031.4,19.6,0000.7,0007.67,0003.73,0003.43
2023-08-14 13:52:00,SystemResetWarning,0841.8,4.99,000.00,029.8,028.4,000.0,038.4,031.4,19.5,0000.9,0007.24,0003.73,0003.42
2023-08-14 13:53:00,SystemResetWarning,0841.8,5.00,000.00,029.8,028.5,000.0,038.4,031.4,19.6,0000.3,0007.50,0003.75,0003.41
2023-08-14 13:54:00,SystemResetWarning,0841.8,5.00,000.00,029.9,028.5,000.0,038.5,031.4,19.9,0000.0,0007.54,0003.76,0003.41
2023-08-14 13:55:00,SystemResetWarning,0841.8,5.01,000.00,029.9,028.6,000.0,038.5,031.4,20.0,0000.0,0006.80,0003.76,0003.41
2023-08-14 13:56:00,SystemResetWarning,0841.8,5.00,000.00,029.9,028.6,000.0,038.5,031.5,19.8,0000.0,0006.72,0003.77,0003.40
2023-08-14 13:57:00,SystemResetWarning,0841.8,4.99,000.00,029.9,028.6,000.0,038.5,031.5,19.8,0000.0,0006.84,0003.77,0003.40
2023-08-14 13:58:00,SystemResetWarning,0841.8,4.99,000.00,029.9,028.7,000.0,038.5,031.5,20.1,0000.0,0007.39,0003.77,0003.38
2023-08-14 13:59:00,SystemResetWarning,0841.8,4.99,000.00,029.9,028.7,000.0,038.5,031.5,20.2,0000.0,0007.29,0003.72,0003.36
